iso_date,epoch_date,Year,Hour,Min,DOY,POS_DOY,Lat,Lon,BP,Ts,Ta,has_bp,has_ts,has_ta,BuoyID,Buoy_Type,Buoy_Owner,Logistics,Hemisphere
2019-11-06T00:00:00Z,1572998400,2019,0,0,310.0,310.0,86.2849,116.782,1025.5,-17.91,-999.0,yes,yes,no,300234066080220,BD2GI,AOML,POLAR_STERN,North
2019-11-06T01:00:02Z,1573002003,2019,1,0,310.0417,310.0417,86.2845,116.7415,1025.8,-17.94,-999.0,yes,yes,no,300234066080220,BD2GI,AOML,POLAR_STERN,North
2019-11-06T01:59:57Z,1573005597,2019,2,0,310.0833,310.0833,86.2841,116.7041,1025.9,-17.62,-999.0,yes,yes,no,300234066080220,BD2GI,AOML,POLAR_STERN,North
2019-11-06T03:00:00Z,1573009200,2019,3,0,310.125,310.125,86.2836,116.6689,1025.9,-17.53,-999.0,yes,yes,no,300234066080220,BD2GI,AOML,POLAR_STERN,North
2019-11-06T04:00:02Z,1573012803,2019,4,0,310.1667,310.1667,86.283,116.6335,1026.2,-17.54,-999.0,yes,yes,no,300234066080220,BD2GI,AOML,POLAR_STERN,North
2019-11-06T04:59:57Z,1573016397,2019,5,0,310.2083,310.2083,86.2822,116.5968,1026.5,-17.48,-999.0,yes,yes,no,300234066080220,BD2GI,AOML,POLAR_STERN,North
2019-11-06T06:00:00Z,1573020000,2019,6,0,310.25,310.25,86.2814,116.5584,1026.9,-17.36,-999.0,yes,yes,no,300234066080220,BD2GI,AOML,POLAR_STERN,North
2019-11-06T07:00:02Z,1573023603,2019,7,0,310.2917,310.2917,86.2805,116.5161,1027.3,-17.25,-999.0,yes,yes,no,300234066080220,BD2GI,AOML,POLAR_STERN,North
2019-11-06T07:59:57Z,1573027197,2019,8,0,310.3333,310.3333,86.2797,116.4704,1027.6,-17.22,-999.0,yes,yes,no,300234066080220,BD2GI,AOML,POLAR_STERN,North
2019-11-06T09:00:00Z,1573030800,2019,9,0,310.375,310.375,86.2791,116.423,1027.9,-17.21,-999.0,yes,yes,no,300234066080220,BD2GI,AOML,POLAR_STERN,North
2019-11-06T10:00:02Z,1573034403,2019,10,0,310.4167,310.4167,86.2788,116.3738,1028.1,-17.08,-999.0,yes,yes,no,300234066080220,BD2GI,AOML,POLAR_STERN,North
2019-11-06T10:59:57Z,1573037997,2019,11,0,310.4583,310.4583,86.2788,116.3224,1028.5,-17.0,-999.0,yes,yes,no,300234066080220,BD2GI,AOML,POLAR_STERN,North
2019-11-06T12:00:00Z,1573041600,2019,12,0,310.5,310.5,86.2791,116.2731,1028.5,-17.12,-999.0,yes,yes,no,300234066080220,BD2GI,AOML,POLAR_STERN,North
2019-11-06T13:00:02Z,1573045203,2019,13,0,310.5417,310.5417,86.2795,116.2279,1028.7,-17.21,-999.0,yes,yes,no,300234066080220,BD2GI,AOML,POLAR_STERN,North
2019-11-06T13:59:57Z,1573048797,2019,14,0,310.5833,310.5833,86.2801,116.1872,1029.0,-17.18,-999.0,yes,yes,no,300234066080220,BD2GI,AOML,POLAR_STERN,North
2019-11-06T15:00:00Z,1573052400,2019,15,0,310.625,310.625,86.2805,116.1508,1029.3,-17.13,-999.0,yes,yes,no,300234066080220,BD2GI,AOML,POLAR_STERN,North
2019-11-06T16:00:02Z,1573056003,2019,16,0,310.6667,310.6667,86.2808,116.1175,1029.6,-16.92,-999.0,yes,yes,no,300234066080220,BD2GI,AOML,POLAR_STERN,North
2019-11-06T16:59:57Z,1573059597,2019,17,0,310.7083,310.7083,86.2808,116.0847,1029.7,-16.7,-999.0,yes,yes,no,300234066080220,BD2GI,AOML,POLAR_STERN,North
2019-11-06T18:00:00Z,1573063200,2019,18,0,310.75,310.75,86.2806,116.0502,1030.0,-16.42,-999.0,yes,yes,no,300234066080220,BD2GI,AOML,POLAR_STERN,North
2019-11-06T19:00:02Z,1573066803,2019,19,0,310.7917,310.7917,86.2803,116.013,1030.4,-16.11,-999.0,yes,yes,no,300234066080220,BD2GI,AOML,POLAR_STERN,North
2019-11-06T19:59:57Z,1573070397,2019,20,0,310.8333,310.8333,86.28,115.973,1030.5,-15.87,-999.0,yes,yes,no,300234066080220,BD2GI,AOML,POLAR_STERN,North
2019-11-06T21:00:00Z,1573074000,2019,21,0,310.875,310.875,86.2797,115.9303,1031.0,-15.76,-999.0,yes,yes,no,300234066080220,BD2GI,AOML,POLAR_STERN,North
2019-11-06T22:00:02Z,1573077603,2019,22,0,310.9167,310.9167,86.2797,115.8874,1031.3,-15.59,-999.0,yes,yes,no,300234066080220,BD2GI,AOML,POLAR_STERN,North
2019-11-06T22:59:57Z,1573081197,2019,23,0,310.9583,310.9583,86.28,115.8444,1031.5,-15.45,-999.0,yes,yes,no,300234066080220,BD2GI,AOML,POLAR_STERN,North
2019-11-07T00:00:00Z,1573084800,2019,0,0,311.0,311.0,86.2804,115.8034,1031.5,-15.3,-999.0,yes,yes,no,300234066080220,BD2GI,AOML,POLAR_STERN,North
2019-11-07T01:00:02Z,1573088403,2019,1,0,311.0417,311.0417,86.2811,115.7661,1031.6,-15.17,-999.0,yes,yes,no,300234066080220,BD2GI,AOML,POLAR_STERN,North
2019-11-07T01:59:57Z,1573091997,2019,2,0,311.0833,311.0833,86.2816,115.7326,1031.6,-15.06,-999.0,yes,yes,no,300234066080220,BD2GI,AOML,POLAR_STERN,North
2019-11-07T03:00:00Z,1573095600,2019,3,0,311.125,311.125,86.282,115.7027,1031.6,-14.93,-999.0,yes,yes,no,300234066080220,BD2GI,AOML,POLAR_STERN,North
2019-11-07T04:00:02Z,1573099203,2019,4,0,311.1667,311.1667,86.2822,115.6744,1031.5,-14.88,-999.0,yes,yes,no,300234066080220,BD2GI,AOML,POLAR_STERN,North
2019-11-07T04:59:57Z,1573102797,2019,5,0,311.2083,311.2083,86.2822,115.6457,1031.5,-14.87,-999.0,yes,yes,no,300234066080220,BD2GI,AOML,POLAR_STERN,North
2019-11-07T06:00:00Z,1573106400,2019,6,0,311.25,311.25,86.2819,115.6158,1031.6,-14.83,-999.0,yes,yes,no,300234066080220,BD2GI,AOML,POLAR_STERN,North
2019-11-07T07:00:02Z,1573110003,2019,7,0,311.2917,311.2917,86.2813,115.5821,1031.6,-14.64,-999.0,yes,yes,no,300234066080220,BD2GI,AOML,POLAR_STERN,North
2019-11-07T07:59:57Z,1573113597,2019,8,0,311.3333,311.3333,86.2807,115.5452,1031.5,-14.55,-999.0,yes,yes,no,300234066080220,BD2GI,AOML,POLAR_STERN,North
2019-11-07T09:00:00Z,1573117200,2019,9,0,311.375,311.375,86.2801,115.5045,1031.5,-14.58,-999.0,yes,yes,no,300234066080220,BD2GI,AOML,POLAR_STERN,North
2019-11-07T10:00:02Z,1573120803,2019,10,0,311.4167,311.4167,86.2795,115.4614,1031.4,-14.77,-999.0,yes,yes,no,300234066080220,BD2GI,AOML,POLAR_STERN,North
2019-11-07T10:59:57Z,1573124397,2019,11,0,311.4583,311.4583,86.279,115.4191,1031.1,-15.17,-999.0,yes,yes,no,300234066080220,BD2GI,AOML,POLAR_STERN,North
2019-11-07T12:00:00Z,1573128000,2019,12,0,311.5,311.5,86.2788,115.3806,1030.9,-15.65,-999.0,yes,yes,no,300234066080220,BD2GI,AOML,POLAR_STERN,North
2019-11-07T13:00:02Z,1573131603,2019,13,0,311.5417,311.5417,86.2786,115.3453,1030.5,-16.0,-999.0,yes,yes,no,300234066080220,BD2GI,AOML,POLAR_STERN,North
2019-11-07T13:59:57Z,1573135197,2019,14,0,311.5833,311.5833,86.2784,115.3132,1030.3,-15.99,-999.0,yes,yes,no,300234066080220,BD2GI,AOML,POLAR_STERN,North
2019-11-07T15:00:00Z,1573138800,2019,15,0,311.625,311.625,86.2782,115.2856,1029.9,-15.93,-999.0,yes,yes,no,300234066080220,BD2GI,AOML,POLAR_STERN,North
2019-11-07T16:00:02Z,1573142403,2019,16,0,311.6667,311.6667,86.2779,115.2619,1029.7,-15.94,-999.0,yes,yes,no,300234066080220,BD2GI,AOML,POLAR_STERN,North
2019-11-07T16:59:57Z,1573145997,2019,17,0,311.7083,311.7083,86.2774,115.2398,1029.5,-15.95,-999.0,yes,yes,no,300234066080220,BD2GI,AOML,POLAR_STERN,North
2019-11-07T18:00:00Z,1573149600,2019,18,0,311.75,311.75,86.2768,115.2168,1029.2,-16.05,-999.0,yes,yes,no,300234066080220,BD2GI,AOML,POLAR_STERN,North
2019-11-07T19:00:02Z,1573153203,2019,19,0,311.7917,311.7917,86.2759,115.1912,1028.9,-16.2,-999.0,yes,yes,no,300234066080220,BD2GI,AOML,POLAR_STERN,North
2019-11-07T19:59:57Z,1573156797,2019,20,0,311.8333,311.8333,86.275,115.1633,1028.7,-16.22,-999.0,yes,yes,no,300234066080220,BD2GI,AOML,POLAR_STERN,North
2019-11-07T21:00:00Z,1573160400,2019,21,0,311.875,311.875,86.2741,115.1305,1028.5,-16.2,-999.0,yes,yes,no,300234066080220,BD2GI,AOML,POLAR_STERN,North
2019-11-07T22:00:02Z,1573164003,2019,22,0,311.9167,311.9167,86.2733,115.0966,1028.3,-16.33,-999.0,yes,yes,no,300234066080220,BD2GI,AOML,POLAR_STERN,North
2019-11-07T22:59:57Z,1573167597,2019,23,0,311.9583,311.9583,86.2727,115.0623,1028.0,-16.27,-999.0,yes,yes,no,300234066080220,BD2GI,AOML,POLAR_STERN,North
2019-11-08T00:00:00Z,1573171200,2019,0,0,312.0,312.0,86.2723,115.0313,1027.7,-16.38,-999.0,yes,yes,no,300234066080220,BD2GI,AOML,POLAR_STERN,North
2019-11-08T01:00:02Z,1573174803,2019,1,0,312.0417,312.0417,86.2719,115.0033,1027.1,-16.53,-999.0,yes,yes,no,300234066080220,BD2GI,AOML,POLAR_STERN,North
2019-11-08T01:59:57Z,1573178397,2019,2,0,312.0833,312.0833,86.2716,114.9794,1026.8,-16.73,-999.0,yes,yes,no,300234066080220,BD2GI,AOML,POLAR_STERN,North
2019-11-08T03:00:00Z,1573182000,2019,3,0,312.125,312.125,86.2712,114.9585,1026.1,-16.99,-999.0,yes,yes,no,300234066080220,BD2GI,AOML,POLAR_STERN,North
2019-11-08T04:00:02Z,1573185603,2019,4,0,312.1667,312.1667,86.2705,114.9395,1025.6,-16.79,-999.0,yes,yes,no,300234066080220,BD2GI,AOML,POLAR_STERN,North
2019-11-08T04:59:57Z,1573189197,2019,5,0,312.2083,312.2083,86.2695,114.9204,1025.0,-16.75,-999.0,yes,yes,no,300234066080220,BD2GI,AOML,POLAR_STERN,North
2019-11-08T06:00:00Z,1573192800,2019,6,0,312.25,312.25,86.2682,114.8984,1024.3,-16.75,-999.0,yes,yes,no,300234066080220,BD2GI,AOML,POLAR_STERN,North
2019-11-08T07:00:02Z,1573196403,2019,7,0,312.2917,312.2917,86.2666,114.8734,1024.0,-16.55,-999.0,yes,yes,no,300234066080220,BD2GI,AOML,POLAR_STERN,North
2019-11-08T07:59:57Z,1573199997,2019,8,0,312.3333,312.3333,86.2648,114.8473,1023.7,-16.43,-999.0,yes,yes,no,300234066080220,BD2GI,AOML,POLAR_STERN,North
2019-11-08T09:00:00Z,1573203600,2019,9,0,312.375,312.375,86.2627,114.8155,1023.1,-16.45,-999.0,yes,yes,no,300234066080220,BD2GI,AOML,POLAR_STERN,North
2019-11-08T10:00:02Z,1573207203,2019,10,0,312.4167,312.4167,86.2607,114.7812,1022.5,-16.28,-999.0,yes,yes,no,300234066080220,BD2GI,AOML,POLAR_STERN,North
2019-11-08T10:59:57Z,1573210797,2019,11,0,312.4583,312.4583,86.2586,114.7432,1021.9,-16.09,-999.0,yes,yes,no,300234066080220,BD2GI,AOML,POLAR_STERN,North
2019-11-08T12:00:00Z,1573214400,2019,12,0,312.5,312.5,86.2566,114.7069,1021.3,-15.96,-999.0,yes,yes,no,300234066080220,BD2GI,AOML,POLAR_STERN,North
2019-11-08T13:00:02Z,1573218003,2019,13,0,312.5417,312.5417,86.2546,114.6728,1020.9,-15.86,-999.0,yes,yes,no,300234066080220,BD2GI,AOML,POLAR_STERN,North
2019-11-08T13:59:57Z,1573221597,2019,14,0,312.5833,312.5833,86.2525,114.6404,1020.4,-15.78,-999.0,yes,yes,no,300234066080220,BD2GI,AOML,POLAR_STERN,North
2019-11-08T15:00:00Z,1573225200,2019,15,0,312.625,312.625,86.2503,114.6114,1020.0,-15.72,-999.0,yes,yes,no,300234066080220,BD2GI,AOML,POLAR_STERN,North
2019-11-08T16:00:02Z,1573228803,2019,16,0,312.6667,312.6667,86.2479,114.5851,1019.5,-15.65,-999.0,yes,yes,no,300234066080220,BD2GI,AOML,POLAR_STERN,North
2019-11-08T16:59:57Z,1573232397,2019,17,0,312.7083,312.7083,86.2453,114.5605,1019.1,-15.54,-999.0,yes,yes,no,300234066080220,BD2GI,AOML,POLAR_STERN,North
2019-11-08T18:00:00Z,1573236000,2019,18,0,312.75,312.75,86.2425,114.5367,1018.9,-15.44,-999.0,yes,yes,no,300234066080220,BD2GI,AOML,POLAR_STERN,North
2019-11-08T19:00:02Z,1573239603,2019,19,0,312.7917,312.7917,86.2392,114.5102,1018.6,-15.3,-999.0,yes,yes,no,300234066080220,BD2GI,AOML,POLAR_STERN,North
2019-11-08T19:59:57Z,1573243197,2019,20,0,312.8333,312.8333,86.2357,114.4837,1018.6,-15.17,-999.0,yes,yes,no,300234066080220,BD2GI,AOML,POLAR_STERN,North
2019-11-08T21:00:00Z,1573246800,2019,21,0,312.875,312.875,86.2323,114.4592,1018.5,-15.15,-999.0,yes,yes,no,300234066080220,BD2GI,AOML,POLAR_STERN,North
2019-11-08T22:00:02Z,1573250403,2019,22,0,312.9167,312.9167,86.2289,114.4359,1018.3,-15.15,-999.0,yes,yes,no,300234066080220,BD2GI,AOML,POLAR_STERN,North
2019-11-08T22:59:57Z,1573253997,2019,23,0,312.9583,312.9583,86.2258,114.4168,1018.1,-15.04,-999.0,yes,yes,no,300234066080220,BD2GI,AOML,POLAR_STERN,North
2019-11-09T00:00:00Z,1573257600,2019,0,0,313.0,313.0,86.2228,114.4035,1018.2,-15.02,-999.0,yes,yes,no,300234066080220,BD2GI,AOML,POLAR_STERN,North
2019-11-09T01:00:02Z,1573261203,2019,1,0,313.0417,313.0417,86.2201,114.3974,1018.2,-15.1,-999.0,yes,yes,no,300234066080220,BD2GI,AOML,POLAR_STERN,North
2019-11-09T01:59:57Z,1573264797,2019,2,0,313.0833,313.0833,86.2176,114.3966,1018.1,-15.1,-999.0,yes,yes,no,300234066080220,BD2GI,AOML,POLAR_STERN,North
2019-11-09T03:00:00Z,1573268400,2019,3,0,313.125,313.125,86.2151,114.4012,1017.9,-15.02,-999.0,yes,yes,no,300234066080220,BD2GI,AOML,POLAR_STERN,North
2019-11-09T04:00:02Z,1573272003,2019,4,0,313.1667,313.1667,86.2126,114.4085,1017.8,-14.87,-999.0,yes,yes,no,300234066080220,BD2GI,AOML,POLAR_STERN,North
2019-11-09T04:59:57Z,1573275597,2019,5,0,313.2083,313.2083,86.21,114.4177,1018.0,-14.83,-999.0,yes,yes,no,300234066080220,BD2GI,AOML,POLAR_STERN,North
2019-11-09T06:00:00Z,1573279200,2019,6,0,313.25,313.25,86.2074,114.4258,1017.9,-14.79,-999.0,yes,yes,no,300234066080220,BD2GI,AOML,POLAR_STERN,North
2019-11-09T07:00:02Z,1573282803,2019,7,0,313.2917,313.2917,86.2048,114.4303,1018.1,-14.86,-999.0,yes,yes,no,300234066080220,BD2GI,AOML,POLAR_STERN,North
2019-11-09T07:59:57Z,1573286397,2019,8,0,313.3333,313.3333,86.2024,114.4318,1018.3,-14.83,-999.0,yes,yes,no,300234066080220,BD2GI,AOML,POLAR_STERN,North
2019-11-09T09:00:00Z,1573290000,2019,9,0,313.375,313.375,86.2002,114.4316,1018.6,-14.85,-999.0,yes,yes,no,300234066080220,BD2GI,AOML,POLAR_STERN,North
2019-11-09T10:00:02Z,1573293603,2019,10,0,313.4167,313.4167,86.1981,114.4311,1018.6,-14.9,-999.0,yes,yes,no,300234066080220,BD2GI,AOML,POLAR_STERN,North
2019-11-09T10:59:57Z,1573297197,2019,11,0,313.4583,313.4583,86.1962,114.4321,1019.0,-15.03,-999.0,yes,yes,no,300234066080220,BD2GI,AOML,POLAR_STERN,North
2019-11-09T12:00:00Z,1573300800,2019,12,0,313.5,313.5,86.1945,114.438,1019.0,-15.18,-999.0,yes,yes,no,300234066080220,BD2GI,AOML,POLAR_STERN,North
2019-11-09T13:00:02Z,1573304403,2019,13,0,313.5417,313.5417,86.1929,114.4496,1019.2,-15.4,-999.0,yes,yes,no,300234066080220,BD2GI,AOML,POLAR_STERN,North
2019-11-09T13:59:57Z,1573307997,2019,14,0,313.5833,313.5833,86.1914,114.4663,1019.5,-15.31,-999.0,yes,yes,no,300234066080220,BD2GI,AOML,POLAR_STERN,North
2019-11-09T15:00:00Z,1573311600,2019,15,0,313.625,313.625,86.19,114.4869,1019.6,-15.31,-999.0,yes,yes,no,300234066080220,BD2GI,AOML,POLAR_STERN,North
2019-11-09T16:00:02Z,1573315203,2019,16,0,313.6667,313.6667,86.1885,114.5086,1019.8,-15.31,-999.0,yes,yes,no,300234066080220,BD2GI,AOML,POLAR_STERN,North
2019-11-09T16:59:57Z,1573318797,2019,17,0,313.7083,313.7083,86.187,114.5302,1019.7,-15.3,-999.0,yes,yes,no,300234066080220,BD2GI,AOML,POLAR_STERN,North
2019-11-09T18:00:00Z,1573322400,2019,18,0,313.75,313.75,86.1857,114.5502,1019.9,-15.38,-999.0,yes,yes,no,300234066080220,BD2GI,AOML,POLAR_STERN,North
2019-11-09T19:00:02Z,1573326003,2019,19,0,313.7917,313.7917,86.1844,114.5675,1020.1,-15.5,-999.0,yes,yes,no,300234066080220,BD2GI,AOML,POLAR_STERN,North
2019-11-09T19:59:57Z,1573329597,2019,20,0,313.8333,313.8333,86.1832,114.5829,1020.2,-15.66,-999.0,yes,yes,no,300234066080220,BD2GI,AOML,POLAR_STERN,North
2019-11-09T21:00:00Z,1573333200,2019,21,0,313.875,313.875,86.1823,114.5977,1020.5,-15.81,-999.0,yes,yes,no,300234066080220,BD2GI,AOML,POLAR_STERN,North
2019-11-09T22:00:02Z,1573336803,2019,22,0,313.9167,313.9167,86.1815,114.6122,1020.6,-15.97,-999.0,yes,yes,no,300234066080220,BD2GI,AOML,POLAR_STERN,North
2019-11-09T22:59:57Z,1573340397,2019,23,0,313.9583,313.9583,86.181,114.628,1020.7,-16.13,-999.0,yes,yes,no,300234066080220,BD2GI,AOML,POLAR_STERN,North
2019-11-10T00:00:00Z,1573344000,2019,0,0,314.0,314.0,86.1807,114.6457,1020.9,-16.3,-999.0,yes,yes,no,300234066080220,BD2GI,AOML,POLAR_STERN,North
2019-11-10T01:00:02Z,1573347603,2019,1,0,314.0417,314.0417,86.1805,114.665,1020.9,-16.49,-999.0,yes,yes,no,300234066080220,BD2GI,AOML,POLAR_STERN,North
2019-11-10T01:59:57Z,1573351197,2019,2,0,314.0833,314.0833,86.1805,114.6866,1021.0,-16.7,-999.0,yes,yes,no,300234066080220,BD2GI,AOML,POLAR_STERN,North
2019-11-10T03:00:00Z,1573354800,2019,3,0,314.125,314.125,86.1805,114.7104,1021.3,-16.93,-999.0,yes,yes,no,300234066080220,BD2GI,AOML,POLAR_STERN,North
2019-11-10T04:00:02Z,1573358403,2019,4,0,314.1667,314.1667,86.1806,114.7356,1021.5,-17.15,-999.0,yes,yes,no,300234066080220,BD2GI,AOML,POLAR_STERN,North
2019-11-10T04:59:57Z,1573361997,2019,5,0,314.2083,314.2083,86.1807,114.7608,1021.3,-17.36,-999.0,yes,yes,no,300234066080220,BD2GI,AOML,POLAR_STERN,North
2019-11-10T06:00:00Z,1573365600,2019,6,0,314.25,314.25,86.1807,114.7845,1021.5,-17.55,-999.0,yes,yes,no,300234066080220,BD2GI,AOML,POLAR_STERN,North
2019-11-10T07:00:02Z,1573369203,2019,7,0,314.2917,314.2917,86.1809,114.8057,1021.8,-17.75,-999.0,yes,yes,no,300234066080220,BD2GI,AOML,POLAR_STERN,North
2019-11-10T07:59:57Z,1573372797,2019,8,0,314.3333,314.3333,86.1812,114.8241,1022.2,-17.91,-999.0,yes,yes,no,300234066080220,BD2GI,AOML,POLAR_STERN,North
2019-11-10T09:00:00Z,1573376400,2019,9,0,314.375,314.375,86.1817,114.8395,1022.4,-18.09,-999.0,yes,yes,no,300234066080220,BD2GI,AOML,POLAR_STERN,North
2019-11-10T10:00:02Z,1573380003,2019,10,0,314.4167,314.4167,86.1825,114.8528,1022.6,-18.25,-999.0,yes,yes,no,300234066080220,BD2GI,AOML,POLAR_STERN,North
2019-11-10T10:59:57Z,1573383597,2019,11,0,314.4583,314.4583,86.1836,114.866,1022.8,-18.43,-999.0,yes,yes,no,300234066080220,BD2GI,AOML,POLAR_STERN,North
2019-11-10T12:00:00Z,1573387200,2019,12,0,314.5,314.5,86.1849,114.8809,1022.9,-18.59,-999.0,yes,yes,no,300234066080220,BD2GI,AOML,POLAR_STERN,North
2019-11-10T13:00:02Z,1573390803,2019,13,0,314.5417,314.5417,86.1864,114.8993,1022.9,-18.72,-999.0,yes,yes,no,300234066080220,BD2GI,AOML,POLAR_STERN,North
2019-11-10T13:59:57Z,1573394397,2019,14,0,314.5833,314.5833,86.188,114.9214,1022.8,-18.82,-999.0,yes,yes,no,300234066080220,BD2GI,AOML,POLAR_STERN,North
2019-11-10T15:00:00Z,1573398000,2019,15,0,314.625,314.625,86.1896,114.9462,1023.0,-18.87,-999.0,yes,yes,no,300234066080220,BD2GI,AOML,POLAR_STERN,North
2019-11-10T16:00:02Z,1573401603,2019,16,0,314.6667,314.6667,86.1911,114.9724,1023.0,-18.93,-999.0,yes,yes,no,300234066080220,BD2GI,AOML,POLAR_STERN,North
2019-11-10T16:59:57Z,1573405197,2019,17,0,314.7083,314.7083,86.1925,114.9981,1022.9,-18.97,-999.0,yes,yes,no,300234066080220,BD2GI,AOML,POLAR_STERN,North
2019-11-10T18:00:00Z,1573408800,2019,18,0,314.75,314.75,86.1941,115.0219,1023.0,-19.01,-999.0,yes,yes,no,300234066080220,BD2GI,AOML,POLAR_STERN,North
2019-11-10T19:00:02Z,1573412403,2019,19,0,314.7917,314.7917,86.1959,115.0429,1023.2,-19.03,-999.0,yes,yes,no,300234066080220,BD2GI,AOML,POLAR_STERN,North
2019-11-10T19:59:57Z,1573415997,2019,20,0,314.8333,314.8333,86.198,115.0598,1023.6,-18.98,-999.0,yes,yes,no,300234066080220,BD2GI,AOML,POLAR_STERN,North
2019-11-10T21:00:00Z,1573419600,2019,21,0,314.875,314.875,86.2005,115.0735,1023.9,-19.02,-999.0,yes,yes,no,300234066080220,BD2GI,AOML,POLAR_STERN,North
2019-11-10T22:00:02Z,1573423203,2019,22,0,314.9167,314.9167,86.2033,115.0861,1024.1,-19.13,-999.0,yes,yes,no,300234066080220,BD2GI,AOML,POLAR_STERN,North
2019-11-10T22:59:57Z,1573426797,2019,23,0,314.9583,314.9583,86.2065,115.0991,1024.2,-19.21,-999.0,yes,yes,no,300234066080220,BD2GI,AOML,POLAR_STERN,North
2019-11-11T00:00:00Z,1573430400,2019,0,0,315.0,315.0,86.21,115.1141,1024.5,-19.31,-999.0,yes,yes,no,300234066080220,BD2GI,AOML,POLAR_STERN,North
2019-11-11T01:00:02Z,1573434003,2019,1,0,315.0417,315.0417,86.2137,115.1332,1024.6,-19.34,-999.0,yes,yes,no,300234066080220,BD2GI,AOML,POLAR_STERN,North
2019-11-11T01:59:57Z,1573437597,2019,2,0,315.0833,315.0833,86.2175,115.1569,1024.8,-19.38,-999.0,yes,yes,no,300234066080220,BD2GI,AOML,POLAR_STERN,North
2019-11-11T03:00:00Z,1573441200,2019,3,0,315.125,315.125,86.2216,115.184,1024.6,-19.66,-999.0,yes,yes,no,300234066080220,BD2GI,AOML,POLAR_STERN,North
2019-11-11T04:00:02Z,1573444803,2019,4,0,315.1667,315.1667,86.2259,115.2116,1024.6,-19.99,-999.0,yes,yes,no,300234066080220,BD2GI,AOML,POLAR_STERN,North
2019-11-11T04:59:57Z,1573448397,2019,5,0,315.2083,315.2083,86.2305,115.2371,1024.4,-20.06,-999.0,yes,yes,no,300234066080220,BD2GI,AOML,POLAR_STERN,North
2019-11-11T06:00:00Z,1573452000,2019,6,0,315.25,315.25,86.2356,115.2607,1024.4,-20.04,-999.0,yes,yes,no,300234066080220,BD2GI,AOML,POLAR_STERN,North
2019-11-11T07:00:02Z,1573455603,2019,7,0,315.2917,315.2917,86.2412,115.2832,1024.4,-20.26,-999.0,yes,yes,no,300234066080220,BD2GI,AOML,POLAR_STERN,North
2019-11-11T07:59:57Z,1573459197,2019,8,0,315.3333,315.3333,86.2471,115.303,1024.2,-20.46,-999.0,yes,yes,no,300234066080220,BD2GI,AOML,POLAR_STERN,North
2019-11-11T09:00:00Z,1573462800,2019,9,0,315.375,315.375,86.2537,115.324,1024.5,-20.5,-999.0,yes,yes,no,300234066080220,BD2GI,AOML,POLAR_STERN,North
2019-11-11T10:00:02Z,1573466403,2019,10,0,315.4167,315.4167,86.2606,115.3454,1024.2,-20.46,-999.0,yes,yes,no,300234066080220,BD2GI,AOML,POLAR_STERN,North
2019-11-11T10:59:57Z,1573469997,2019,11,0,315.4583,315.4583,86.2678,115.3699,1024.0,-20.33,-999.0,yes,yes,no,300234066080220,BD2GI,AOML,POLAR_STERN,North
2019-11-11T12:00:00Z,1573473600,2019,12,0,315.5,315.5,86.2752,115.3994,1023.9,-19.85,-999.0,yes,yes,no,300234066080220,BD2GI,AOML,POLAR_STERN,North
2019-11-11T13:00:02Z,1573477203,2019,13,0,315.5417,315.5417,86.2824,115.4328,1023.5,-19.21,-999.0,yes,yes,no,300234066080220,BD2GI,AOML,POLAR_STERN,North
2019-11-11T13:59:57Z,1573480797,2019,14,0,315.5833,315.5833,86.2895,115.4705,1023.3,-18.73,-999.0,yes,yes,no,300234066080220,BD2GI,AOML,POLAR_STERN,North
2019-11-11T15:00:00Z,1573484400,2019,15,0,315.625,315.625,86.2962,115.5113,1023.1,-18.18,-999.0,yes,yes,no,300234066080220,BD2GI,AOML,POLAR_STERN,North
2019-11-11T16:00:02Z,1573488003,2019,16,0,315.6667,315.6667,86.3023,115.5551,1023.1,-17.69,-999.0,yes,yes,no,300234066080220,BD2GI,AOML,POLAR_STERN,North
2019-11-11T16:59:57Z,1573491597,2019,17,0,315.7083,315.7083,86.308,115.6008,1023.0,-17.15,-999.0,yes,yes,no,300234066080220,BD2GI,AOML,POLAR_STERN,North
2019-11-11T18:00:00Z,1573495200,2019,18,0,315.75,315.75,86.3131,115.6467,1023.2,-16.58,-999.0,yes,yes,no,300234066080220,BD2GI,AOML,POLAR_STERN,North
2019-11-11T19:00:02Z,1573498803,2019,19,0,315.7917,315.7917,86.3179,115.6927,1023.6,-16.04,-999.0,yes,yes,no,300234066080220,BD2GI,AOML,POLAR_STERN,North
2019-11-11T19:59:57Z,1573502397,2019,20,0,315.8333,315.8333,86.3225,115.7405,1024.1,-15.43,-999.0,yes,yes,no,300234066080220,BD2GI,AOML,POLAR_STERN,North
2019-11-11T21:00:00Z,1573506000,2019,21,0,315.875,315.875,86.3271,115.7883,1025.0,-14.94,-999.0,yes,yes,no,300234066080220,BD2GI,AOML,POLAR_STERN,North
2019-11-11T22:00:02Z,1573509603,2019,22,0,315.9167,315.9167,86.3317,115.8371,1025.7,-14.56,-999.0,yes,yes,no,300234066080220,BD2GI,AOML,POLAR_STERN,North
2019-11-11T22:59:57Z,1573513197,2019,23,0,315.9583,315.9583,86.3363,115.8878,1026.4,-14.29,-999.0,yes,yes,no,300234066080220,BD2GI,AOML,POLAR_STERN,North
2019-11-12T00:00:00Z,1573516800,2019,0,0,316.0,316.0,86.3411,115.9424,1026.9,-14.09,-999.0,yes,yes,no,300234066080220,BD2GI,AOML,POLAR_STERN,North
2019-11-12T01:00:02Z,1573520403,2019,1,0,316.0417,316.0417,86.3458,116.0007,1027.2,-13.91,-999.0,yes,yes,no,300234066080220,BD2GI,AOML,POLAR_STERN,North
2019-11-12T01:59:57Z,1573523997,2019,2,0,316.0833,316.0833,86.3504,116.061,1027.5,-13.78,-999.0,yes,yes,no,300234066080220,BD2GI,AOML,POLAR_STERN,North
2019-11-12T03:00:00Z,1573527600,2019,3,0,316.125,316.125,86.3549,116.1206,1027.9,-13.61,-999.0,yes,yes,no,300234066080220,BD2GI,AOML,POLAR_STERN,North
2019-11-12T04:00:02Z,1573531203,2019,4,0,316.1667,316.1667,86.3593,116.1767,1027.9,-13.47,-999.0,yes,yes,no,300234066080220,BD2GI,AOML,POLAR_STERN,North
2019-11-12T04:59:57Z,1573534797,2019,5,0,316.2083,316.2083,86.3637,116.2282,1028.1,-13.35,-999.0,yes,yes,no,300234066080220,BD2GI,AOML,POLAR_STERN,North
2019-11-12T06:00:00Z,1573538400,2019,6,0,316.25,316.25,86.3681,116.2735,1028.4,-13.22,-999.0,yes,yes,no,300234066080220,BD2GI,AOML,POLAR_STERN,North
2019-11-12T07:00:02Z,1573542003,2019,7,0,316.2917,316.2917,86.3724,116.3096,1028.5,-13.09,-999.0,yes,yes,no,300234066080220,BD2GI,AOML,POLAR_STERN,North
2019-11-12T07:59:57Z,1573545597,2019,8,0,316.3333,316.3333,86.3769,116.3361,1028.6,-12.95,-999.0,yes,yes,no,300234066080220,BD2GI,AOML,POLAR_STERN,North
2019-11-12T09:00:00Z,1573549200,2019,9,0,316.375,316.375,86.3816,116.3567,1028.7,-12.93,-999.0,yes,yes,no,300234066080220,BD2GI,AOML,POLAR_STERN,North
2019-11-12T10:00:02Z,1573552803,2019,10,0,316.4167,316.4167,86.3866,116.3749,1029.1,-13.08,-999.0,yes,yes,no,300234066080220,BD2GI,AOML,POLAR_STERN,North
2019-11-12T10:59:57Z,1573556397,2019,11,0,316.4583,316.4583,86.3918,116.3949,1029.1,-13.2,-999.0,yes,yes,no,300234066080220,BD2GI,AOML,POLAR_STERN,North